User: anonymous   Login
Location: Bouchavesnes-Bergen
(49.9859°N, 2.9203°E)
Time: 05:51:25
(UTC+00:00)
Language:

Cosmos 2251 Rocket - Orbit

View from above orbital plane
View from above orbital plane
View from above satellite
View from above satellite

Ground track
Ground track

The orbit data is extracted from the following two-line orbital elements,

1 22676U 93036B   21134.28799563  .00000076  00000-0  36470-4 0  9991
2 22676  74.0423  91.6427 0017962 132.1640 228.1041 14.34039400459909
Epoch (UTC): 14 May 2021 06:54:42
Eccentricity: 0.0017962
inclination: 74.0423°
perigee height: 765 km
apogee height: 791 km
right ascension of ascending node: 91.6427°
argument of perigee: 132.1640°
revolutions per day: 14.34039400
mean anomaly at epoch: 228.1041°
orbit number at epoch: 45990

The dashed part of the orbit path shows where the satellite is in the earth's shadow,  

DLR